weather.gov     
National Weather Service

Terminal Aerodrome Forecast
NWS Homepage
This page is being discontinued on March 12, 2014.
The same data is available at this site. Please update your bookmarks.
Thank you, and we apologize for the inconvenience.
Please send an email to SR-SRH.Webmaster@noaa.gov with any concerns.


Current Version
Previous Version:    01  02  03  04  05  06  07  08  09  10  11  12  13  14  
[Printable]
685
FTUS41 KBOX 220520
TAFBDL
TAF
KBDL 220520Z 2206/2312 01004KT P6SM OVC015
     FM221300 01004KT P6SM BKN025
     FM221700 03004KT P6SM BKN020
     FM230300 36004KT P6SM OVC010
     FM230400 36004KT 3SM -SHRASN OVC010
     FM230600 36004KT 2SM -SHRA OVC010=




685
FTUS41 KBOX 220520
TAFBDL
TAF
KBDL 220520Z 2206/2312 01004KT P6SM OVC015
     FM221300 01004KT P6SM BKN025
     FM221700 03004KT P6SM BKN020
     FM230300 36004KT P6SM OVC010
     FM230400 36004KT 3SM -SHRASN OVC010
     FM230600 36004KT 2SM -SHRA OVC010=


U.S. Dept. of Commerce
NOAA National Weather Service
1325 East West Highway
Silver Spring, MD 20910
E-mail: w-nws.webmaster@noaa.gov
Page last modified: May 16, 2007
NATIONAL WEATHER SERVICE: for Safety, for Work, for Fun - FOR LIFE